TimeMDT,TemperatureF,Dew PointF,Humidity,Sea Level PressureIn,VisibilityMPH,Wind Direction,Wind SpeedMPH,Gust SpeedMPH,PrecipitationIn,Events,Conditions,WindDirDegrees,DateUTC
12:58 AM,45.7,39.9,80,29.62,10.0,North,9.2,-,N/A,,Clear,360,2013-09-27 06:58:00
1:58 AM,45.5,36.7,71,29.60,10.0,NNW,5.8,-,N/A,,Clear,340,2013-09-27 07:58:00
2:58 AM,48.9,34.0,56,29.57,10.0,WSW,1.2,-,N/A,,Clear,240,2013-09-27 08:58:00
3:58 AM,56.7,30.0,36,29.53,10.0,Variable,4.6,-,N/A,,Clear,0,2013-09-27 09:58:00
4:58 AM,57.0,29.8,36,29.55,10.0,Variable,5.8,-,N/A,,Clear,0,2013-09-27 10:58:00
5:58 AM,52.5,31.1,44,29.57,10.0,SSE,12.7,-,N/A,,Clear,160,2013-09-27 11:58:00
6:58 AM,55.4,29.3,37,29.57,10.0,South,15.0,-,N/A,,Clear,180,2013-09-27 12:58:00
7:58 AM,57.2,32.4,39,29.63,10.0,South,8.1,-,N/A,,Clear,180,2013-09-27 13:58:00
8:58 AM,62.2,33.4,34,29.62,10.0,Variable,2.3,-,N/A,,Clear,0,2013-09-27 14:58:00
9:58 AM,61.0,41.0,48,29.61,10.0,NNW,9.2,17.3,N/A,,Clear,340,2013-09-27 15:58:00
10:58 AM,64.2,39.2,40,29.61,10.0,Variable,4.6,-,N/A,,Partly Cloudy,0,2013-09-27 16:58:00
11:58 AM,61.3,44.2,53,29.62,10.0,NNW,18.4,24.2,N/A,,Scattered Clouds,340,2013-09-27 17:58:00
12:48 PM,55.4,46.4,72,29.79,10.0,NNW,20.7,25.3,N/A,Rain,Light Rain,340,2013-09-27 18:48:00
12:58 PM,53.1,46.0,77,29.66,10.0,NNW,20.7,28.8,0.00,Rain,Light Rain,340,2013-09-27 18:58:00
1:00 PM,51.8,44.6,76,29.79,10.0,NNW,20.7,28.8,N/A,,Scattered Clouds,340,2013-09-27 19:00:00
1:58 PM,49.6,44.2,82,29.70,10.0,North,20.7,27.6,0.00,,Partly Cloudy,360,2013-09-27 19:58:00
2:33 PM,51.8,44.6,76,29.82,10.0,North,17.3,23.0,N/A,,Mostly Cloudy,350,2013-09-27 20:33:00
2:58 PM,52.2,43.7,73,29.67,10.0,North,20.7,27.6,N/A,,Overcast,350,2013-09-27 20:58:00
3:58 PM,51.3,43.3,74,29.65,10.0,North,19.6,31.1,N/A,,Overcast,360,2013-09-27 21:58:00
4:58 PM,49.5,42.6,77,29.69,10.0,North,20.7,-,N/A,,Overcast,360,2013-09-27 22:58:00
5:08 PM,50.0,42.8,76,29.85,10.0,North,21.9,-,N/A,,Mostly Cloudy,360,2013-09-27 23:08:00
5:18 PM,48.2,42.8,82,29.85,10.0,North,19.6,-,N/A,,Overcast,10,2013-09-27 23:18:00
5:43 PM,48.2,42.8,82,29.87,10.0,North,19.6,-,N/A,,Scattered Clouds,360,2013-09-27 23:43:00
5:58 PM,47.7,41.7,80,29.75,10.0,North,18.4,-,N/A,,Scattered Clouds,360,2013-09-27 23:58:00
6:08 PM,48.2,42.8,82,29.89,10.0,North,16.1,-,N/A,,Mostly Cloudy,360,2013-09-28 00:08:00
6:33 PM,46.4,41.0,81,29.89,10.0,North,17.3,27.6,N/A,,Scattered Clouds,360,2013-09-28 00:33:00
6:58 PM,46.0,41.7,85,29.76,10.0,North,15.0,19.6,N/A,,Partly Cloudy,10,2013-09-28 00:58:00
7:03 PM,46.4,41.0,81,29.90,10.0,NNW,18.4,23.0,N/A,,Partly Cloudy,340,2013-09-28 01:03:00
7:30 PM,48.2,37.4,66,29.92,10.0,WNW,17.3,36.8,N/A,,Mostly Cloudy,300,2013-09-28 01:30:00
7:58 PM,48.4,34.7,59,29.78,10.0,NNW,17.3,21.9,N/A,,Mostly Cloudy,340,2013-09-28 01:58:00
7:59 PM,48.2,33.8,58,29.94,10.0,NW,15.0,21.9,N/A,,Mostly Cloudy,310,2013-09-28 01:59:00
8:58 PM,46.9,37.4,69,29.80,10.0,North,9.2,-,N/A,,Overcast,350,2013-09-28 02:58:00
9:58 PM,43.3,37.8,81,29.88,10.0,NNW,11.5,-,N/A,,Scattered Clouds,340,2013-09-28 03:58:00
10:03 PM,42.8,37.4,81,30.02,10.0,NNW,10.4,-,N/A,,Mostly Cloudy,340,2013-09-28 04:03:00
10:08 PM,44.6,37.4,76,30.02,10.0,North,15.0,-,N/A,,Mostly Cloudy,10,2013-09-28 04:08:00
10:13 PM,42.8,37.4,81,30.02,10.0,NNE,16.1,-,N/A,,Mostly Cloudy,20,2013-09-28 04:13:00
10:18 PM,42.8,37.4,81,30.02,10.0,NNE,15.0,-,N/A,,Mostly Cloudy,20,2013-09-28 04:18:00
10:23 PM,42.8,37.4,81,30.03,10.0,NNE,12.7,-,N/A,,Scattered Clouds,20,2013-09-28 04:23:00
10:58 PM,40.3,35.2,82,29.89,10.0,North,8.1,17.3,N/A,,Clear,350,2013-09-28 04:58:00
11:04 PM,41.0,33.8,76,30.04,10.0,North,13.8,-,N/A,,Clear,350,2013-09-28 05:04:00
11:58 PM,39.4,34.2,82,29.93,10.0,NE,5.8,-,N/A,,Clear,50,2013-09-28 05:58:00